Location: *
(17.3280°S, 114.7300°W)
Time: 07:40:19
(UTC+00:00)

ADEOS Rocket - Pass Details

Date: 05 August 2020
Orbit: 858 x 1307 km, 98.7° (Epoch: 20 September)

Event Time Altitude Azimuth Distance (km) Brightness Sun altitude
Rises 13:15:46 0° 174° (S) 3,699 6.0 -11.6°
Reaches altitude 10° 13:18:09 10° 177° (S) 2,802 5.3 -11.1°
Maximum altitude 13:24:25 63° 256° (WSW) 1,207 3.2 -9.6°
Drops below altitude 10° 13:31:21 10° 336° (NNW) 3,089 5.5 -8.0°
Sets 13:34:06 0° 339° (NNW) 4,104 6.2 -7.4°
